Location: Unspecified
(43.9500°N, 64.7900°W)
Time: 08:04:20
(UTC-04:00)

Envisat - Visible Passes

Search period start: 22 January 2019 00:00
Search period end: 01 February 2019 00:00
Orbit: 764 x 766 km, 98.2° (Epoch: 21 January)

Date Brightness Start Highest point End Pass type
(mag) Time Alt. Az. Time Alt. Az. Time Alt. Az.
22 Jan 6.1 06:35:50 10° ENE 06:38:24 14° E 06:40:58 10° ESE visible
22 Jan 4.1 17:51:18 10° ESE 17:55:10 23° ENE 17:59:03 10° NNE visible
22 Jan 3.9 19:28:57 10° S 19:33:51 49° W 19:38:48 10° NNW visible
23 Jan 2.9 18:52:00 10° SSE 18:57:04 77° ENE 19:02:10 10° N visible
23 Jan 5.9 20:34:17 10° WSW 20:36:41 13° W 20:39:04 10° WNW visible
24 Jan 5.7 07:00:09 10° NE 07:04:14 24° E 07:08:18 10° SSE visible
24 Jan 3.5 18:15:52 10° SE 18:20:29 36° ENE 18:25:07 10° N visible
24 Jan 4.9 19:55:11 10° SSW 19:59:33 29° W 20:03:57 10° NW visible
25 Jan 6.5 06:25:56 10° ENE 06:27:03 11° E 06:28:09 10° E visible
25 Jan 3.4 19:17:36 10° S 19:22:37 62° W 19:27:40 10° NNW visible
26 Jan 3.0 18:40:54 10° SSE 18:45:54 62° ENE 18:50:55 10° N visible
26 Jan 5.7 20:22:06 10° SW 20:25:20 17° W 20:28:35 10° NW visible
27 Jan 5.9 06:49:19 10° NE 06:52:55 19° E 06:56:30 10° SE visible
27 Jan 3.8 18:05:01 10° SE 18:09:22 30° ENE 18:13:44 10° N visible
27 Jan 4.5 19:43:37 10° SSW 19:48:16 36° W 19:52:57 10° NNW visible
28 Jan 3.1 19:06:20 10° S 19:11:24 78° WSW 19:16:31 10° NNW visible
29 Jan 3.2 18:29:51 10° SE 18:34:44 49° ENE 18:39:38 10° N visible
29 Jan 5.4 20:10:12 10° SW 20:14:00 21° W 20:17:51 10° NW visible
30 Jan 6.1 06:38:40 10° NE 06:41:35 15° E 06:44:30 10° SE visible
30 Jan 4.0 17:54:14 10° ESE 17:58:16 24° ENE 18:02:18 10° NNE visible
30 Jan 4.1 19:32:10 10° S 19:37:00 45° W 19:41:53 10° NNW visible
31 Jan 2.9 18:55:07 10° SSE 19:00:12 84° ENE 19:05:19 10° NNW visible
31 Jan 6.1 20:37:57 10° WSW 20:39:52 12° W 20:41:47 10° WNW visible
